Tracking 23762 objects as of 21-Oct-2021
HD Live streaming from Space Station
objects crossing your sky now

UNISAT 7

Track UNISAT 7 now!
10-day predictions
UNISAT 7 is classified as:


NORAD ID: 47945
Int'l Code: 2021-022P
Perigee: 541.5 km
Apogee: 564.7 km
Inclination: 97.5 °
Period: 95.6 minutes
Semi major axis: 6924 km
RCS: Unknown
Launch date: March 22, 2021
Source: (ITA)
Launch site: TYURATAM MISSILE AND SPACE COMPLEX (TTMTR)

Uplink (MHz):
Downlink (MHz): 437.425
Beacon (MHz):
Mode: 9600bps FSK
Call sign: II0US
Status: Active

aabbcc
Your satellite tracking list
Your tracking list is empty




NASA's NSSDC Master Catalog

Two Line Element Set (TLE):
1 47945U 21022P   21293.50616694  .00000432  00000-0  33104-4 0  9994
2 47945  97.5431 193.3244 0016764 235.3588 124.6059 15.06803557 31779
Source of the keplerian elements: AFSPC